Location: La Sioule Rivi�re
(46.3664°N, 3.3197°E)
Time: 12:08:12
(UTC+00:00)

H-2A R/B - Pass Details

Date: 29 October 2020
Orbit: 733 x 837 km, 98.2° (Epoch: 23 November)

Event Time Altitude Azimuth Distance (km) Brightness Sun altitude
Exits shadow 17:56:29 - 142° (SE) 3,359 5.0 -14.4°
Reaches altitude 10° 17:58:56 10° 135° (SE) 2,437 4.2 -14.8°
Maximum altitude 18:03:58 40° 67° (ENE) 1,212 2.6 -15.7°
Drops below altitude 10° 18:09:02 10° 360° (N) 2,460 4.6 -16.5°
Sets 18:11:31 0° 353° (N) 3,394 5.4 -17.0°
